Time,TemperatureF,DewpointF,PressureIn,WindDirection,WindDirectionDegrees,WindSpeedMPH,WindSpeedGustMPH,Humidity,HourlyPrecipIn,Conditions,Clouds,dailyrainin,SoftwareType,DateUTC
2013-03-13 00:00:00,44.6,29.0,30.05,WNW,292,5.0,12.0,54,0.00,,---,0.00,VWS V14.01,2013-03-13 05:00:00,
2013-03-13 00:05:00,44.4,28.8,30.06,WNW,296,3.0,10.0,54,0.00,,---,0.00,VWS V14.01,2013-03-13 05:05:00,
2013-03-13 00:10:00,44.2,28.2,30.06,NW,312,6.0,16.0,53,0.00,,---,0.00,VWS V14.01,2013-03-13 05:10:00,
2013-03-13 00:15:00,44.1,28.5,30.06,NW,314,4.0,16.0,54,0.00,,---,0.00,VWS V14.01,2013-03-13 05:15:00,
2013-03-13 00:20:00,44.0,28.9,30.06,NNW,346,5.0,16.0,55,0.00,,---,0.00,VWS V14.01,2013-03-13 05:20:00,
2013-03-13 00:25:00,43.8,28.7,30.06,NNW,348,4.0,16.0,55,0.00,,---,0.00,VWS V14.01,2013-03-13 05:25:00,
2013-03-13 00:30:00,43.6,29.0,30.06,NNE,33,4.0,16.0,56,0.00,,---,0.00,VWS V14.01,2013-03-13 05:30:00,
2013-03-13 00:35:00,43.4,29.2,30.06,NNW,348,6.0,6.0,57,0.00,,---,0.00,VWS V14.01,2013-03-13 05:35:00,
2013-03-13 00:40:00,43.0,28.8,30.06,NNW,336,3.0,12.0,57,0.00,,---,0.00,VWS V14.01,2013-03-13 05:40:00,
2013-03-13 00:45:00,42.6,28.9,30.06,WNW,303,1.0,14.0,58,0.00,,---,0.00,VWS V14.01,2013-03-13 05:45:00,
2013-03-13 00:50:00,42.2,28.5,30.07,North,350,4.0,14.0,58,0.00,,---,0.00,VWS V14.01,2013-03-13 05:50:00,
2013-03-13 00:55:00,41.8,28.5,30.07,NW,313,1.0,14.0,59,0.00,,---,0.00,VWS V14.01,2013-03-13 05:55:00,
2013-03-13 01:00:00,41.6,27.9,30.07,WNW,288,1.0,14.0,58,0.00,,---,0.00,VWS V14.01,2013-03-13 06:00:00,
2013-03-13 01:05:00,41.3,28.1,30.07,WNW,298,4.0,6.0,59,0.00,,---,0.00,VWS V14.01,2013-03-13 06:05:00,
2013-03-13 01:10:00,41.1,28.3,30.07,WNW,302,1.0,6.0,60,0.00,,---,0.00,VWS V14.01,2013-03-13 06:10:00,
2013-03-13 01:15:00,40.7,27.9,30.07,NW,314,4.0,7.0,60,0.00,,---,0.00,VWS V14.01,2013-03-13 06:15:00,
2013-03-13 01:20:00,40.5,28.1,30.07,West,277,4.0,9.0,61,0.00,,---,0.00,VWS V14.01,2013-03-13 06:20:00,
2013-03-13 01:25:00,40.4,28.4,30.07,NNW,338,4.0,9.0,62,0.00,,---,0.00,VWS V14.01,2013-03-13 06:25:00,
2013-03-13 01:30:00,40.1,28.5,30.07,NNW,336,0.0,9.0,63,0.00,,---,0.00,VWS V14.01,2013-03-13 06:30:00,
2013-03-13 01:35:00,39.7,28.1,30.07,NNW,336,0.0,4.0,63,0.00,,---,0.00,VWS V14.01,2013-03-13 06:35:00,
2013-03-13 01:40:00,39.4,27.9,30.07,NNW,333,3.0,6.0,63,0.00,,---,0.00,VWS V14.01,2013-03-13 06:40:00,
2013-03-13 01:45:00,39.3,27.8,30.07,NNW,330,0.0,6.0,63,0.00,,---,0.00,VWS V14.01,2013-03-13 06:45:00,
2013-03-13 01:50:00,39.1,27.6,30.08,NW,322,1.0,8.0,63,0.00,,---,0.00,VWS V14.01,2013-03-13 06:50:00,
2013-03-13 01:55:00,38.8,27.7,30.08,NW,309,0.0,8.0,64,0.00,,---,0.00,VWS V14.01,2013-03-13 06:55:00,
2013-03-13 02:00:00,38.7,27.6,30.08,NNW,338,0.0,8.0,64,0.00,,---,0.00,VWS V14.01,2013-03-13 07:00:00,
2013-03-13 02:05:00,38.4,27.3,30.08,NW,305,0.0,3.0,64,0.00,,---,0.00,VWS V14.01,2013-03-13 07:05:00,
2013-03-13 02:10:00,38.3,27.6,30.08,WNW,302,0.0,3.0,65,0.00,,---,0.00,VWS V14.01,2013-03-13 07:10:00,
2013-03-13 02:15:00,38.1,27.4,30.08,NW,307,2.0,5.0,65,0.00,,---,0.00,VWS V14.01,2013-03-13 07:15:00,
2013-03-13 02:20:00,38.0,27.3,30.08,NNW,339,0.0,5.0,65,0.00,,---,0.00,VWS V14.01,2013-03-13 07:20:00,
2013-03-13 02:25:00,37.7,27.4,30.08,NNW,327,1.0,5.0,66,0.00,,---,0.00,VWS V14.01,2013-03-13 07:25:00,
2013-03-13 02:30:00,37.6,27.3,30.08,West,265,3.0,5.0,66,0.00,,---,0.00,VWS V14.01,2013-03-13 07:30:00,
2013-03-13 02:35:00,37.6,26.9,30.08,NW,304,1.0,6.0,65,0.00,,---,0.00,VWS V14.01,2013-03-13 07:35:00,
2013-03-13 02:40:00,37.6,26.9,30.08,WNW,291,10.0,10.0,65,0.00,,---,0.00,VWS V14.01,2013-03-13 07:40:00,
2013-03-13 02:45:00,37.6,26.9,30.08,WNW,292,2.0,10.0,65,0.00,,---,0.00,VWS V14.01,2013-03-13 07:45:00,
2013-03-13 02:50:00,37.5,26.5,30.08,WNW,302,3.0,12.0,64,0.00,,---,0.00,VWS V14.01,2013-03-13 07:50:00,
2013-03-13 02:55:00,37.5,26.1,30.08,WNW,303,2.0,12.0,63,0.00,,---,0.00,VWS V14.01,2013-03-13 07:55:00,
2013-03-13 03:00:00,37.4,26.0,30.08,NW,306,4.0,12.0,63,0.00,,---,0.00,VWS V14.01,2013-03-13 08:00:00,
2013-03-13 03:06:00,37.3,25.9,30.08,WSW,257,4.0,10.0,63,0.00,,---,0.00,VWS V14.01,2013-03-13 08:06:00,
2013-03-13 03:12:00,37.1,25.7,30.08,NNW,328,9.0,10.0,63,0.00,,---,0.00,VWS V14.01,2013-03-13 08:12:00,
2013-03-13 03:17:00,37.1,25.7,30.08,West,272,6.0,13.0,63,0.00,,---,0.00,VWS V14.01,2013-03-13 08:17:00,
2013-03-13 03:22:00,37.2,25.4,30.08,WNW,302,6.0,13.0,62,0.00,,---,0.00,VWS V14.01,2013-03-13 08:22:00,
2013-03-13 03:27:00,37.0,25.2,30.08,WNW,301,6.0,13.0,62,0.00,,---,0.00,VWS V14.01,2013-03-13 08:27:00,
2013-03-13 03:32:00,36.9,25.1,30.08,NW,305,6.0,6.0,62,0.00,,---,0.00,VWS V14.01,2013-03-13 08:32:00,
2013-03-13 03:37:00,36.6,24.8,30.08,WNW,298,6.0,11.0,62,0.00,,---,0.00,VWS V14.01,2013-03-13 08:37:00,
2013-03-13 03:42:00,36.6,25.2,30.08,WNW,295,5.0,11.0,63,0.00,,---,0.00,VWS V14.01,2013-03-13 08:42:00,
2013-03-13 03:47:00,36.4,25.0,30.08,West,269,4.0,11.0,63,0.00,,---,0.00,VWS V14.01,2013-03-13 08:47:00,
2013-03-13 03:52:00,36.3,24.9,30.08,West,269,4.0,11.0,63,0.00,,---,0.00,VWS V14.01,2013-03-13 08:52:00,
2013-03-13 03:57:00,36.3,24.9,30.08,West,281,4.0,11.0,63,0.00,,---,0.00,VWS V14.01,2013-03-13 08:57:00,
2013-03-13 04:02:00,36.1,25.1,30.08,NW,304,4.0,4.0,64,0.00,,---,0.00,VWS V14.01,2013-03-13 09:02:00,
2013-03-13 04:07:00,35.9,24.9,30.08,West,279,4.0,9.0,64,0.00,,---,0.00,VWS V14.01,2013-03-13 09:07:00,
2013-03-13 04:12:00,35.8,24.8,30.08,WNW,294,2.0,9.0,64,0.00,,---,0.00,VWS V14.01,2013-03-13 09:12:00,
2013-03-13 04:17:00,35.8,24.8,30.08,West,279,5.0,10.0,64,0.00,,---,0.00,VWS V14.01,2013-03-13 09:17:00,
2013-03-13 04:22:00,35.9,24.9,30.08,NW,306,5.0,12.0,64,0.00,,---,0.00,VWS V14.01,2013-03-13 09:22:00,
2013-03-13 04:27:00,36.0,25.0,30.08,West,277,5.0,12.0,64,0.00,,---,0.00,VWS V14.01,2013-03-13 09:27:00,
2013-03-13 04:32:00,36.1,25.1,30.09,West,271,5.0,5.0,64,0.00,,---,0.00,VWS V14.01,2013-03-13 09:32:00,
2013-03-13 04:37:00,36.1,25.1,30.09,WNW,282,4.0,11.0,64,0.00,,---,0.00,VWS V14.01,2013-03-13 09:37:00,
2013-03-13 04:42:00,36.1,24.7,30.09,WNW,300,8.0,11.0,63,0.00,,---,0.00,VWS V14.01,2013-03-13 09:42:00,
2013-03-13 04:47:00,36.0,24.6,30.10,WNW,286,5.0,11.0,63,0.00,,---,0.00,VWS V14.01,2013-03-13 09:47:00,
2013-03-13 04:52:00,36.0,24.3,30.10,WNW,300,6.0,11.0,62,0.00,,---,0.00,VWS V14.01,2013-03-13 09:52:00,
2013-03-13 04:57:00,35.9,24.2,30.10,WNW,301,4.0,11.0,62,0.00,,---,0.00,VWS V14.01,2013-03-13 09:57:00,
2013-03-13 05:02:00,35.8,24.1,30.10,WNW,290,2.0,5.0,62,0.00,,---,0.00,VWS V14.01,2013-03-13 10:02:00,
2013-03-13 05:07:00,35.6,23.9,30.10,WNW,294,8.0,14.0,62,0.00,,---,0.00,VWS V14.01,2013-03-13 10:07:00,
2013-03-13 05:12:00,35.5,23.4,30.10,NW,306,11.0,17.0,61,0.00,,---,0.00,VWS V14.01,2013-03-13 10:12:00,
2013-03-13 05:17:00,35.5,23.8,30.11,WNW,300,2.0,17.0,62,0.00,,---,0.00,VWS V14.01,2013-03-13 10:17:00,
2013-03-13 05:22:00,35.4,23.3,30.11,WNW,292,4.0,17.0,61,0.00,,---,0.00,VWS V14.01,2013-03-13 10:22:00,
2013-03-13 05:27:00,35.3,22.8,30.11,West,276,5.0,17.0,60,0.00,,---,0.00,VWS V14.01,2013-03-13 10:27:00,
2013-03-13 05:32:00,35.2,22.7,30.11,WSW,257,1.0,10.0,60,0.00,,---,0.00,VWS V14.01,2013-03-13 10:32:00,
2013-03-13 05:37:00,35.1,21.8,30.11,WNW,289,7.0,22.0,58,0.00,,---,0.00,VWS V14.01,2013-03-13 10:37:00,
2013-03-13 05:42:00,35.0,21.7,30.11,WNW,292,5.0,22.0,58,0.00,,---,0.00,VWS V14.01,2013-03-13 10:42:00,
2013-03-13 05:47:00,34.8,21.5,30.11,WNW,290,5.0,22.0,58,0.00,,---,0.00,VWS V14.01,2013-03-13 10:47:00,
2013-03-13 05:52:00,34.5,21.3,30.11,West,276,1.0,22.0,58,0.00,,---,0.00,VWS V14.01,2013-03-13 10:52:00,
2013-03-13 05:57:00,34.4,21.6,30.11,WNW,302,3.0,22.0,59,0.00,,---,0.00,VWS V14.01,2013-03-13 10:57:00,
2013-03-13 06:02:00,34.4,21.2,30.12,WNW,286,3.0,5.0,58,0.00,,---,0.00,VWS V14.01,2013-03-13 11:02:00,
2013-03-13 06:07:00,34.3,21.5,30.12,WNW,288,3.0,11.0,59,0.00,,---,0.00,VWS V14.01,2013-03-13 11:07:00,
2013-03-13 06:12:00,34.1,20.9,30.12,NW,311,5.0,12.0,58,0.00,,---,0.00,VWS V14.01,2013-03-13 11:12:00,
2013-03-13 06:17:00,34.1,20.9,30.13,WNW,284,3.0,13.0,58,0.00,,---,0.00,VWS V14.01,2013-03-13 11:17:00,
2013-03-13 06:22:00,33.9,20.7,30.13,WNW,292,1.0,13.0,58,0.00,,---,0.00,VWS V14.01,2013-03-13 11:22:00,
2013-03-13 06:27:00,33.8,20.6,30.13,NNW,347,3.0,13.0,58,0.00,,---,0.00,VWS V14.01,2013-03-13 11:27:00,
2013-03-13 06:32:00,33.7,20.9,30.13,WNW,288,3.0,4.0,59,0.00,,---,0.00,VWS V14.01,2013-03-13 11:32:00,
2013-03-13 06:37:00,33.5,20.7,30.13,West,278,0.0,6.0,59,0.00,,---,0.00,VWS V14.01,2013-03-13 11:37:00,
2013-03-13 06:42:00,33.4,21.0,30.13,NW,313,1.0,7.0,60,0.00,,---,0.00,VWS V14.01,2013-03-13 11:42:00,
2013-03-13 06:47:00,33.2,20.8,30.14,West,281,4.0,7.0,60,0.00,,---,0.00,VWS V14.01,2013-03-13 11:47:00,
2013-03-13 06:52:00,33.2,20.8,30.14,NW,308,0.0,9.0,60,0.00,,---,0.00,VWS V14.01,2013-03-13 11:52:00,
2013-03-13 06:57:00,33.2,21.2,30.14,NW,321,6.0,11.0,61,0.00,,---,0.00,VWS V14.01,2013-03-13 11:57:00,
2013-03-13 07:02:00,33.0,21.0,30.15,NW,307,3.0,5.0,61,0.00,,---,0.00,VWS V14.01,2013-03-13 12:02:00,
2013-03-13 07:07:00,33.0,21.0,30.15,WNW,301,6.0,12.0,61,0.00,,---,0.00,VWS V14.01,2013-03-13 12:07:00,
2013-03-13 07:12:00,33.0,21.0,30.15,WNW,292,0.0,12.0,61,0.00,,---,0.00,VWS V14.01,2013-03-13 12:12:00,
2013-03-13 07:17:00,32.9,21.3,30.15,WNW,294,5.0,12.0,62,0.00,,---,0.00,VWS V14.01,2013-03-13 12:17:00,
2013-03-13 07:22:00,32.8,21.2,30.15,WNW,300,4.0,12.0,62,0.00,,---,0.00,VWS V14.01,2013-03-13 12:22:00,
2013-03-13 07:27:00,32.8,21.6,30.15,WNW,302,2.0,12.0,63,0.00,,---,0.00,VWS V14.01,2013-03-13 12:27:00,
2013-03-13 07:32:00,32.8,22.0,30.16,NW,308,2.0,4.0,64,0.00,,---,0.00,VWS V14.01,2013-03-13 12:32:00,
2013-03-13 07:37:00,32.9,22.1,30.16,WNW,294,0.0,5.0,64,0.00,,---,0.00,VWS V14.01,2013-03-13 12:37:00,
2013-03-13 07:42:00,32.9,22.1,30.16,West,275,0.0,5.0,64,0.00,,---,0.00,VWS V14.01,2013-03-13 12:42:00,
2013-03-13 07:47:00,32.9,22.4,30.16,NW,309,6.0,6.0,65,0.00,,---,0.00,VWS V14.01,2013-03-13 12:47:00,
2013-03-13 07:52:00,33.0,22.5,30.16,WNW,302,1.0,6.0,65,0.00,,---,0.00,VWS V14.01,2013-03-13 12:52:00,
2013-03-13 07:57:00,33.2,22.7,30.16,North,355,3.0,6.0,65,0.00,,---,0.00,VWS V14.01,2013-03-13 12:57:00,
2013-03-13 08:03:00,33.4,23.3,30.17,NW,316,4.0,5.0,66,0.00,,---,0.00,VWS V14.01,2013-03-13 13:03:00,
2013-03-13 08:08:00,33.5,23.4,30.17,West,275,9.0,12.0,66,0.00,,---,0.00,VWS V14.01,2013-03-13 13:08:00,
2013-03-13 08:13:00,33.5,23.4,30.17,NNW,344,2.0,13.0,66,0.00,,---,0.00,VWS V14.01,2013-03-13 13:13:00,
2013-03-13 08:18:00,33.5,23.4,30.18,WNW,284,2.0,15.0,66,0.00,,---,0.00,VWS V14.01,2013-03-13 13:18:00,
2013-03-13 08:23:00,33.6,23.1,30.18,NW,319,4.0,17.0,65,0.00,,---,0.00,VWS V14.01,2013-03-13 13:23:00,
2013-03-13 08:28:00,33.6,22.7,30.18,WNW,300,4.0,17.0,64,0.00,,---,0.00,VWS V14.01,2013-03-13 13:28:00,
2013-03-13 08:33:00,33.8,22.5,30.18,West,262,14.0,14.0,63,0.00,,---,0.00,VWS V14.01,2013-03-13 13:33:00,
2013-03-13 08:38:00,33.9,22.6,30.18,WNW,296,3.0,19.0,63,0.00,,---,0.00,VWS V14.01,2013-03-13 13:38:00,
2013-03-13 08:43:00,34.2,22.5,30.18,WNW,290,11.0,19.0,62,0.00,,---,0.00,VWS V14.01,2013-03-13 13:43:00,
2013-03-13 08:48:00,34.2,22.5,30.20,WNW,288,4.0,19.0,62,0.00,,---,0.00,VWS V14.01,2013-03-13 13:48:00,
2013-03-13 08:53:00,34.1,22.5,30.20,WNW,299,4.0,19.0,62,0.00,,---,0.00,VWS V14.01,2013-03-13 13:53:00,
2013-03-13 08:58:00,34.1,22.5,30.20,NNW,347,4.0,19.0,62,0.00,,---,0.00,VWS V14.01,2013-03-13 13:58:00,
2013-03-13 09:03:00,33.9,22.3,30.20,NW,313,6.0,9.0,62,0.00,,---,0.00,VWS V14.01,2013-03-13 14:03:00,
2013-03-13 09:08:00,33.8,21.8,30.20,North,360,13.0,23.0,61,0.00,,---,0.00,VWS V14.01,2013-03-13 14:08:00,
2013-03-13 09:13:00,33.7,20.9,30.20,WNW,290,17.0,23.0,59,0.00,,---,0.00,VWS V14.01,2013-03-13 14:13:00,
2013-03-13 09:18:00,33.9,21.1,30.21,WSW,256,7.0,23.0,59,0.00,,---,0.00,VWS V14.01,2013-03-13 14:18:00,
2013-03-13 09:23:00,33.7,20.5,30.21,NNW,340,7.0,23.0,58,0.00,,---,0.00,VWS V14.01,2013-03-13 14:23:00,
2013-03-13 09:28:00,33.8,21.0,30.21,NW,304,5.0,23.0,59,0.00,,---,0.00,VWS V14.01,2013-03-13 14:28:00,
2013-03-13 09:33:00,33.9,21.1,30.21,West,259,7.0,15.0,59,0.00,,---,0.00,VWS V14.01,2013-03-13 14:33:00,
2013-03-13 09:38:00,34.0,21.2,30.21,WNW,294,16.0,17.0,59,0.00,,---,0.00,VWS V14.01,2013-03-13 14:38:00,
2013-03-13 09:43:00,34.0,21.2,30.21,NW,311,12.0,17.0,59,0.00,,---,0.00,VWS V14.01,2013-03-13 14:43:00,
2013-03-13 09:48:00,34.3,20.7,30.22,West,262,10.0,18.0,57,0.00,,---,0.00,VWS V14.01,2013-03-13 14:48:00,
2013-03-13 09:53:00,33.6,20.0,30.22,WNW,292,7.0,18.0,57,0.00,,---,0.00,VWS V14.01,2013-03-13 14:53:00,
2013-03-13 09:58:00,33.5,19.5,30.22,NW,304,7.0,19.0,56,0.00,,---,0.00,VWS V14.01,2013-03-13 14:58:00,
2013-03-13 10:03:00,34.1,19.2,30.23,WNW,288,9.0,17.0,54,0.00,,---,0.00,VWS V14.01,2013-03-13 15:03:00,
2013-03-13 10:08:00,34.3,19.4,30.23,NNW,332,13.0,17.0,54,0.00,,---,0.00,VWS V14.01,2013-03-13 15:08:00,
2013-03-13 10:13:00,34.4,19.9,30.23,North,349,6.0,17.0,55,0.00,,---,0.00,VWS V14.01,2013-03-13 15:13:00,
2013-03-13 10:18:00,34.5,20.0,30.24,NNW,327,5.0,17.0,55,0.00,,---,0.00,VWS V14.01,2013-03-13 15:18:00,
2013-03-13 10:23:00,34.6,20.1,30.24,North,355,7.0,20.0,55,0.00,,---,0.00,VWS V14.01,2013-03-13 15:23:00,
2013-03-13 10:28:00,34.6,19.7,30.24,NW,308,15.0,20.0,54,0.00,,---,0.00,VWS V14.01,2013-03-13 15:28:00,
2013-03-13 10:33:00,34.6,19.2,30.24,West,266,8.0,17.0,53,0.00,,---,0.00,VWS V14.01,2013-03-13 15:33:00,
2013-03-13 10:38:00,34.6,19.7,30.24,WNW,292,10.0,17.0,54,0.00,,---,0.00,VWS V14.01,2013-03-13 15:38:00,
2013-03-13 10:43:00,34.9,20.0,30.24,North,351,11.0,17.0,54,0.00,,---,0.00,VWS V14.01,2013-03-13 15:43:00,
2013-03-13 10:48:00,34.9,19.5,30.24,WNW,302,3.0,17.0,53,0.00,,---,0.00,VWS V14.01,2013-03-13 15:48:00,
2013-03-13 10:53:00,35.3,19.5,30.24,WNW,303,7.0,17.0,52,0.00,,---,0.00,VWS V14.01,2013-03-13 15:53:00,
2013-03-13 10:58:00,35.2,18.9,30.24,WNW,302,5.0,17.0,51,0.00,,---,0.00,VWS V14.01,2013-03-13 15:58:00,
2013-03-13 11:03:00,35.3,20.8,30.25,North,5,9.0,17.0,55,0.00,,---,0.00,VWS V14.01,2013-03-13 16:03:00,
2013-03-13 11:08:00,35.2,19.8,30.25,NW,311,5.0,23.0,53,0.00,,---,0.00,VWS V14.01,2013-03-13 16:08:00,
2013-03-13 11:13:00,35.5,19.2,30.25,North,355,9.0,23.0,51,0.00,,---,0.00,VWS V14.01,2013-03-13 16:13:00,
2013-03-13 11:18:00,35.8,20.8,30.25,WNW,298,12.0,23.0,54,0.00,,---,0.00,VWS V14.01,2013-03-13 16:18:00,
2013-03-13 11:23:00,36.1,19.7,30.25,West,279,4.0,23.0,51,0.00,,---,0.00,VWS V14.01,2013-03-13 16:23:00,
2013-03-13 11:28:00,35.7,19.8,30.25,NW,313,7.0,23.0,52,0.00,,---,0.00,VWS V14.01,2013-03-13 16:28:00,
2013-03-13 11:33:00,35.5,19.6,30.25,NW,321,5.0,15.0,52,0.00,,---,0.00,VWS V14.01,2013-03-13 16:33:00,
2013-03-13 11:38:00,35.8,19.9,30.25,North,350,4.0,15.0,52,0.00,,---,0.00,VWS V14.01,2013-03-13 16:38:00,
2013-03-13 11:43:00,36.6,21.5,30.25,WNW,285,3.0,15.0,54,0.00,,---,0.00,VWS V14.01,2013-03-13 16:43:00,
2013-03-13 11:48:00,36.8,20.4,30.25,North,355,5.0,15.0,51,0.00,,---,0.00,VWS V14.01,2013-03-13 16:48:00,
2013-03-13 11:53:00,36.4,20.5,30.25,WNW,296,9.0,15.0,52,0.00,,---,0.00,VWS V14.01,2013-03-13 16:53:00,
2013-03-13 11:58:00,36.0,19.2,30.25,NNW,338,6.0,18.0,50,0.00,,---,0.00,VWS V14.01,2013-03-13 16:58:00,
2013-03-13 12:03:00,36.2,19.8,30.26,NW,319,12.0,12.0,51,0.00,,---,0.00,VWS V14.01,2013-03-13 17:03:00,
2013-03-13 12:08:00,36.8,20.8,30.26,West,279,5.0,19.0,52,0.00,,---,0.00,VWS V14.01,2013-03-13 17:08:00,
2013-03-13 12:13:00,37.2,20.8,30.26,WNW,302,8.0,19.0,51,0.00,,---,0.00,VWS V14.01,2013-03-13 17:13:00,
2013-03-13 12:18:00,37.2,21.2,30.26,NNE,27,3.0,19.0,52,0.00,,---,0.00,VWS V14.01,2013-03-13 17:18:00,
2013-03-13 12:23:00,37.2,20.3,30.26,WNW,297,9.0,19.0,50,0.00,,---,0.00,VWS V14.01,2013-03-13 17:23:00,
2013-03-13 12:28:00,37.0,20.6,30.26,WNW,286,0.0,19.0,51,0.00,,---,0.00,VWS V14.01,2013-03-13 17:28:00,
2013-03-13 12:33:00,37.5,20.6,30.26,NNW,344,5.0,14.0,50,0.00,,---,0.00,VWS V14.01,2013-03-13 17:33:00,
2013-03-13 12:38:00,37.2,20.8,30.26,West,274,5.0,14.0,51,0.00,,---,0.00,VWS V14.01,2013-03-13 17:38:00,
2013-03-13 12:43:00,38.2,22.1,30.26,NNW,340,6.0,14.0,52,0.00,,---,0.00,VWS V14.01,2013-03-13 17:43:00,
2013-03-13 12:48:00,38.6,21.1,30.26,WNW,296,4.0,15.0,49,0.00,,---,0.00,VWS V14.01,2013-03-13 17:48:00,
2013-03-13 12:53:00,38.7,22.1,30.26,WNW,288,8.0,15.0,51,0.00,,---,0.00,VWS V14.01,2013-03-13 17:53:00,
2013-03-13 12:58:00,38.0,19.6,30.26,NNW,331,0.0,15.0,47,0.00,,---,0.00,VWS V14.01,2013-03-13 17:58:00,
2013-03-13 13:03:00,37.7,20.8,30.26,NW,317,5.0,13.0,50,0.00,,---,0.00,VWS V14.01,2013-03-13 18:03:00,
2013-03-13 13:08:00,38.6,22.0,30.26,North,5,7.0,14.0,51,0.00,,---,0.00,VWS V14.01,2013-03-13 18:08:00,
2013-03-13 13:13:00,38.6,21.6,30.26,North,355,6.0,16.0,50,0.00,,---,0.00,VWS V14.01,2013-03-13 18:13:00,
2013-03-13 13:18:00,38.8,22.2,30.26,WNW,298,6.0,16.0,51,0.00,,---,0.00,VWS V14.01,2013-03-13 18:18:00,
2013-03-13 13:23:00,38.4,20.9,30.26,NE,37,6.0,16.0,49,0.00,,---,0.00,VWS V14.01,2013-03-13 18:23:00,
2013-03-13 13:28:00,38.3,21.3,30.26,NNW,336,1.0,16.0,50,0.00,,---,0.00,VWS V14.01,2013-03-13 18:28:00,
2013-03-13 13:33:00,39.3,22.2,30.25,NNW,331,3.0,12.0,50,0.00,,---,0.00,VWS V14.01,2013-03-13 18:33:00,
2013-03-13 13:38:00,39.6,22.0,30.25,WNW,301,9.0,17.0,49,0.00,,---,0.00,VWS V14.01,2013-03-13 18:38:00,
2013-03-13 13:43:00,39.4,21.8,30.25,NW,315,6.0,18.0,49,0.00,,---,0.00,VWS V14.01,2013-03-13 18:43:00,
2013-03-13 13:48:00,39.7,21.6,30.25,WNW,301,11.0,18.0,48,0.00,,---,0.00,VWS V14.01,2013-03-13 18:48:00,
2013-03-13 13:53:00,40.0,21.9,30.25,WNW,294,7.0,18.0,48,0.00,,---,0.00,VWS V14.01,2013-03-13 18:53:00,
2013-03-13 13:58:00,40.4,22.3,30.25,WNW,302,4.0,18.0,48,0.00,,---,0.00,VWS V14.01,2013-03-13 18:58:00,
2013-03-13 14:03:00,40.2,21.1,30.25,NNW,342,10.0,14.0,46,0.00,,---,0.00,VWS V14.01,2013-03-13 19:03:00,
2013-03-13 14:08:00,40.1,22.0,30.25,NW,309,10.0,14.0,48,0.00,,---,0.00,VWS V14.01,2013-03-13 19:08:00,
2013-03-13 14:13:00,40.6,22.0,30.25,NW,304,9.0,14.0,47,0.00,,---,0.00,VWS V14.01,2013-03-13 19:13:00,
2013-03-13 14:18:00,40.6,22.0,30.25,WNW,298,12.0,17.0,47,0.00,,---,0.00,VWS V14.01,2013-03-13 19:18:00,
2013-03-13 14:23:00,40.9,21.7,30.25,WNW,295,7.0,17.0,46,0.00,,---,0.00,VWS V14.01,2013-03-13 19:23:00,
2013-03-13 14:28:00,40.8,21.1,30.25,WNW,291,3.0,17.0,45,0.00,,---,0.00,VWS V14.01,2013-03-13 19:28:00,
2013-03-13 14:33:00,41.3,22.1,30.25,NW,322,10.0,15.0,46,0.00,,---,0.00,VWS V14.01,2013-03-13 19:33:00,
2013-03-13 14:38:00,41.5,22.3,30.25,WNW,298,7.0,15.0,46,0.00,,---,0.00,VWS V14.01,2013-03-13 19:38:00,
2013-03-13 14:43:00,42.1,22.8,30.25,NNW,332,12.0,19.0,46,0.00,,---,0.00,VWS V14.01,2013-03-13 19:43:00,
2013-03-13 14:48:00,41.7,22.5,30.24,WNW,302,6.0,19.0,46,0.00,,---,0.00,VWS V14.01,2013-03-13 19:48:00,
2013-03-13 14:53:00,42.5,22.1,30.24,WNW,286,14.0,19.0,44,0.00,,---,0.00,VWS V14.01,2013-03-13 19:53:00,
2013-03-13 14:58:00,41.6,21.3,30.24,West,274,11.0,19.0,44,0.00,,---,0.00,VWS V14.01,2013-03-13 19:58:00,
2013-03-13 15:03:00,41.5,21.8,30.25,West,271,4.0,9.0,45,0.00,,---,0.00,VWS V14.01,2013-03-13 20:03:00,
2013-03-13 15:08:00,42.0,23.2,30.25,West,279,7.0,11.0,47,0.00,,---,0.00,VWS V14.01,2013-03-13 20:08:00,
2013-03-13 15:13:00,42.8,23.5,30.25,NNW,346,5.0,14.0,46,0.00,,---,0.00,VWS V14.01,2013-03-13 20:13:00,
2013-03-13 15:18:00,42.8,22.4,30.24,West,278,4.0,14.0,44,0.00,,---,0.00,VWS V14.01,2013-03-13 20:18:00,
2013-03-13 15:23:00,42.9,22.5,30.24,NW,304,6.0,15.0,44,0.00,,---,0.00,VWS V14.01,2013-03-13 20:23:00,
2013-03-13 15:28:00,42.6,22.2,30.24,NW,309,5.0,16.0,44,0.00,,---,0.00,VWS V14.01,2013-03-13 20:28:00,
2013-03-13 15:33:00,42.5,22.7,30.24,North,5,11.0,12.0,45,0.00,,---,0.00,VWS V14.01,2013-03-13 20:33:00,
2013-03-13 15:38:00,42.4,22.6,30.24,NW,323,4.0,15.0,45,0.00,,---,0.00,VWS V14.01,2013-03-13 20:38:00,
2013-03-13 15:43:00,42.2,22.4,30.24,North,355,9.0,17.0,45,0.00,,---,0.00,VWS V14.01,2013-03-13 20:43:00,
2013-03-13 15:48:00,42.7,22.9,30.24,WNW,291,4.0,17.0,45,0.00,,---,0.00,VWS V14.01,2013-03-13 20:48:00,
2013-03-13 15:53:00,42.6,22.2,30.24,NNW,348,7.0,17.0,44,0.00,,---,0.00,VWS V14.01,2013-03-13 20:53:00,
2013-03-13 15:58:00,41.6,21.9,30.24,NNE,30,7.0,17.0,45,0.00,,---,0.00,VWS V14.01,2013-03-13 20:58:00,
2013-03-13 16:03:00,41.3,22.6,30.25,West,273,10.0,15.0,47,0.00,,---,0.00,VWS V14.01,2013-03-13 21:03:00,
2013-03-13 16:08:00,41.8,22.0,30.25,WNW,289,6.0,15.0,45,0.00,,---,0.00,VWS V14.01,2013-03-13 21:08:00,
2013-03-13 16:13:00,42.6,22.2,30.25,WNW,287,12.0,15.0,44,0.00,,---,0.00,VWS V14.01,2013-03-13 21:13:00,
2013-03-13 16:18:00,42.9,22.0,30.25,West,281,8.0,15.0,43,0.00,,---,0.00,VWS V14.01,2013-03-13 21:18:00,
2013-03-13 16:23:00,42.9,22.5,30.25,NNE,13,14.0,15.0,44,0.00,,---,0.00,VWS V14.01,2013-03-13 21:23:00,
2013-03-13 16:28:00,42.6,22.2,30.25,West,275,12.0,15.0,44,0.00,,---,0.00,VWS V14.01,2013-03-13 21:28:00,
2013-03-13 16:33:00,42.9,22.0,30.25,NNE,14,6.0,12.0,43,0.00,,---,0.00,VWS V14.01,2013-03-13 21:33:00,
2013-03-13 16:38:00,43.0,22.0,30.25,WNW,297,4.0,12.0,43,0.00,,---,0.00,VWS V14.01,2013-03-13 21:38:00,
2013-03-13 16:43:00,43.1,22.7,30.25,NW,312,13.0,14.0,44,0.00,,---,0.00,VWS V14.01,2013-03-13 21:43:00,
2013-03-13 16:48:00,43.1,22.7,30.25,WNW,302,5.0,14.0,44,0.00,,---,0.00,VWS V14.01,2013-03-13 21:48:00,
2013-03-13 16:53:00,42.9,22.5,30.25,NNW,343,9.0,14.0,44,0.00,,---,0.00,VWS V14.01,2013-03-13 21:53:00,
2013-03-13 16:58:00,42.7,22.3,30.25,ENE,59,5.0,14.0,44,0.00,,---,0.00,VWS V14.01,2013-03-13 21:58:00,
2013-03-13 17:03:00,43.1,22.7,30.24,NE,37,1.0,7.0,44,0.00,,---,0.00,VWS V14.01,2013-03-13 22:03:00,
2013-03-13 17:08:00,43.2,22.2,30.24,WNW,297,2.0,13.0,43,0.00,,---,0.00,VWS V14.01,2013-03-13 22:08:00,
2013-03-13 17:13:00,42.9,22.5,30.24,WNW,291,9.0,13.0,44,0.00,,---,0.00,VWS V14.01,2013-03-13 22:13:00,
2013-03-13 17:18:00,42.6,22.2,30.25,North,349,3.0,18.0,44,0.00,,---,0.00,VWS V14.01,2013-03-13 22:18:00,
2013-03-13 17:23:00,42.4,22.0,30.25,NNE,17,9.0,18.0,44,0.00,,---,0.00,VWS V14.01,2013-03-13 22:23:00,
2013-03-13 17:28:00,42.2,21.9,30.25,NNW,341,1.0,18.0,44,0.00,,---,0.00,VWS V14.01,2013-03-13 22:28:00,
2013-03-13 17:33:00,42.2,21.9,30.25,WNW,298,4.0,7.0,44,0.00,,---,0.00,VWS V14.01,2013-03-13 22:33:00,
2013-03-13 17:38:00,42.0,22.7,30.25,NW,318,5.0,15.0,46,0.00,,---,0.00,VWS V14.01,2013-03-13 22:38:00,
2013-03-13 17:43:00,42.3,22.5,30.25,NW,307,5.0,15.0,45,0.00,,---,0.00,VWS V14.01,2013-03-13 22:43:00,
2013-03-13 17:48:00,42.0,22.2,30.25,WNW,290,6.0,15.0,45,0.00,,---,0.00,VWS V14.01,2013-03-13 22:48:00,
2013-03-13 17:53:00,41.5,22.3,30.25,NNE,12,3.0,15.0,46,0.00,,---,0.00,VWS V14.01,2013-03-13 22:53:00,
2013-03-13 17:58:00,41.3,22.1,30.25,NW,323,5.0,15.0,46,0.00,,---,0.00,VWS V14.01,2013-03-13 22:58:00,
2013-03-13 18:03:00,41.2,22.0,30.26,NW,317,10.0,10.0,46,0.00,,---,0.00,VWS V14.01,2013-03-13 23:03:00,
2013-03-13 18:08:00,41.1,21.9,30.26,NNW,342,5.0,13.0,46,0.00,,---,0.00,VWS V14.01,2013-03-13 23:08:00,
2013-03-13 18:13:00,40.8,21.1,30.26,NW,314,2.0,16.0,45,0.00,,---,0.00,VWS V14.01,2013-03-13 23:13:00,
2013-03-13 18:18:00,40.8,21.6,30.26,NNW,328,1.0,16.0,46,0.00,,---,0.00,VWS V14.01,2013-03-13 23:18:00,
2013-03-13 18:23:00,40.6,22.0,30.26,North,360,13.0,16.0,47,0.00,,---,0.00,VWS V14.01,2013-03-13 23:23:00,
2013-03-13 18:28:00,40.4,21.8,30.26,NNW,343,4.0,16.0,47,0.00,,---,0.00,VWS V14.01,2013-03-13 23:28:00,
2013-03-13 18:33:00,40.4,21.8,30.26,NNW,341,2.0,11.0,47,0.00,,---,0.00,VWS V14.01,2013-03-13 23:33:00,
2013-03-13 18:38:00,40.2,21.6,30.26,WNW,300,5.0,14.0,47,0.00,,---,0.00,VWS V14.01,2013-03-13 23:38:00,
2013-03-13 18:43:00,40.1,21.5,30.26,WNW,287,0.0,14.0,47,0.00,,---,0.00,VWS V14.01,2013-03-13 23:43:00,
2013-03-13 18:48:00,39.9,21.8,30.26,NW,312,0.0,14.0,48,0.00,,---,0.00,VWS V14.01,2013-03-13 23:48:00,
2013-03-13 18:53:00,39.7,21.6,30.26,NNE,22,3.0,14.0,48,0.00,,---,0.00,VWS V14.01,2013-03-13 23:53:00,
2013-03-13 18:58:00,39.5,21.9,30.26,NW,324,0.0,14.0,49,0.00,,---,0.00,VWS V14.01,2013-03-13 23:58:00,
2013-03-13 19:03:00,39.3,21.8,30.27,NNE,17,2.0,6.0,49,0.00,,---,0.00,VWS V14.01,2013-03-14 00:03:00,
2013-03-13 19:08:00,39.1,22.0,30.27,WNW,298,4.0,6.0,50,0.00,,---,0.00,VWS V14.01,2013-03-14 00:08:00,
2013-03-13 19:13:00,38.9,21.9,30.27,NNW,332,0.0,6.0,50,0.00,,---,0.00,VWS V14.01,2013-03-14 00:13:00,
2013-03-13 19:18:00,38.7,21.7,30.27,NNW,336,1.0,6.0,50,0.00,,---,0.00,VWS V14.01,2013-03-14 00:18:00,
2013-03-13 19:23:00,38.5,22.0,30.27,NNW,336,0.0,6.0,51,0.00,,---,0.00,VWS V14.01,2013-03-14 00:23:00,
2013-03-13 19:28:00,38.3,21.8,30.27,North,360,1.0,6.0,51,0.00,,---,0.00,VWS V14.01,2013-03-14 00:28:00,
2013-03-13 19:33:00,38.3,21.8,30.27,NNW,344,3.0,5.0,51,0.00,,---,0.00,VWS V14.01,2013-03-14 00:33:00,
2013-03-13 19:38:00,38.2,21.7,30.27,NNW,346,0.0,5.0,51,0.00,,---,0.00,VWS V14.01,2013-03-14 00:38:00,
2013-03-13 19:43:00,38.0,21.5,30.27,NNW,346,0.0,5.0,51,0.00,,---,0.00,VWS V14.01,2013-03-14 00:43:00,
2013-03-13 19:48:00,37.7,21.7,30.27,NNW,346,0.0,5.0,52,0.00,,---,0.00,VWS V14.01,2013-03-14 00:48:00,
2013-03-13 19:53:00,37.4,21.9,30.27,NNW,346,0.0,5.0,53,0.00,,---,0.00,VWS V14.01,2013-03-14 00:53:00,
2013-03-13 19:58:00,37.1,21.6,30.27,NNW,346,0.0,5.0,53,0.00,,---,0.00,VWS V14.01,2013-03-14 00:58:00,
2013-03-13 20:03:00,36.9,21.8,30.28,NNW,348,0.0,4.0,54,0.00,,---,0.00,VWS V14.01,2013-03-14 01:03:00,
2013-03-13 20:08:00,36.8,21.7,30.28,NNW,348,0.0,4.0,54,0.00,,---,0.00,VWS V14.01,2013-03-14 01:08:00,
2013-03-13 20:13:00,36.6,21.5,30.28,NNW,348,0.0,4.0,54,0.00,,---,0.00,VWS V14.01,2013-03-14 01:13:00,
2013-03-13 20:18:00,36.4,21.8,30.28,NNW,348,0.0,4.0,55,0.00,,---,0.00,VWS V14.01,2013-03-14 01:18:00,
2013-03-13 20:23:00,36.2,21.6,30.28,NNW,348,0.0,4.0,55,0.00,,---,0.00,VWS V14.01,2013-03-14 01:23:00,
2013-03-13 20:28:00,36.0,21.8,30.28,NNW,348,0.0,4.0,56,0.00,,---,0.00,VWS V14.01,2013-03-14 01:28:00,
2013-03-13 20:33:00,35.6,21.5,30.28,NNW,348,0.0,1.0,56,0.00,,---,0.00,VWS V14.01,2013-03-14 01:33:00,
2013-03-13 20:38:00,35.3,21.6,30.28,NNW,348,0.0,1.0,57,0.00,,---,0.00,VWS V14.01,2013-03-14 01:38:00,
2013-03-13 20:43:00,34.8,21.5,30.28,NNW,348,0.0,1.0,58,0.00,,---,0.00,VWS V14.01,2013-03-14 01:43:00,
2013-03-13 20:48:00,34.4,21.6,30.29,NNW,348,0.0,1.0,59,0.00,,---,0.00,VWS V14.01,2013-03-14 01:48:00,
2013-03-13 20:53:00,34.1,21.7,30.29,NNW,348,0.0,1.0,60,0.00,,---,0.00,VWS V14.01,2013-03-14 01:53:00,
2013-03-13 20:58:00,33.9,21.9,30.29,NNW,348,0.0,1.0,61,0.00,,---,0.00,VWS V14.01,2013-03-14 01:58:00,
2013-03-13 21:03:00,33.9,21.5,30.29,NNW,348,0.0,0.0,60,0.00,,---,0.00,VWS V14.01,2013-03-14 02:03:00,
2013-03-13 21:09:00,33.9,21.5,30.29,NNW,348,0.0,0.0,60,0.00,,---,0.00,VWS V14.01,2013-03-14 02:09:00,
2013-03-13 21:14:00,33.8,22.5,30.29,NNW,348,0.0,0.0,63,0.00,,---,0.00,VWS V14.01,2013-03-14 02:14:00,
2013-03-13 21:19:00,33.6,20.8,30.29,NNW,348,0.0,0.0,59,0.00,,---,0.00,VWS V14.01,2013-03-14 02:19:00,
2013-03-13 21:24:00,33.3,20.9,30.29,NNW,348,0.0,0.0,60,0.00,,---,0.00,VWS V14.01,2013-03-14 02:24:00,
2013-03-13 21:29:00,33.0,21.0,30.29,NNW,348,0.0,0.0,61,0.00,,---,0.00,VWS V14.01,2013-03-14 02:29:00,
2013-03-13 21:34:00,32.8,20.9,30.29,NNW,348,0.0,0.0,61,0.00,,---,0.00,VWS V14.01,2013-03-14 02:34:00,
2013-03-13 21:39:00,32.7,21.1,30.29,NNW,348,0.0,0.0,62,0.00,,---,0.00,VWS V14.01,2013-03-14 02:39:00,
2013-03-13 21:44:00,32.5,21.7,30.29,NNW,348,0.0,0.0,64,0.00,,---,0.00,VWS V14.01,2013-03-14 02:44:00,
2013-03-13 21:49:00,32.1,21.7,30.29,NNW,348,0.0,0.0,65,0.00,,---,0.00,VWS V14.01,2013-03-14 02:49:00,
2013-03-13 21:54:00,31.8,21.4,30.29,NNW,348,0.0,0.0,65,0.00,,---,0.00,VWS V14.01,2013-03-14 02:54:00,
2013-03-13 21:59:00,31.6,20.8,30.29,NNW,348,0.0,0.0,64,0.00,,---,0.00,VWS V14.01,2013-03-14 02:59:00,
2013-03-13 22:04:00,31.4,21.4,30.30,NNW,348,0.0,0.0,66,0.00,,---,0.00,VWS V14.01,2013-03-14 03:04:00,
2013-03-13 22:09:00,31.1,21.8,30.30,NNW,348,0.0,0.0,68,0.00,,---,0.00,VWS V14.01,2013-03-14 03:09:00,
2013-03-13 22:14:00,30.7,21.1,30.30,NNW,348,0.0,1.0,67,0.00,,---,0.00,VWS V14.01,2013-03-14 03:14:00,
2013-03-13 22:19:00,30.5,20.9,30.30,NNW,348,0.0,1.0,67,0.00,,---,0.00,VWS V14.01,2013-03-14 03:19:00,
2013-03-13 22:24:00,30.3,21.0,30.30,NNW,348,0.0,1.0,68,0.00,,---,0.00,VWS V14.01,2013-03-14 03:24:00,
2013-03-13 22:29:00,30.2,20.6,30.30,NNW,348,0.0,1.0,67,0.00,,---,0.00,VWS V14.01,2013-03-14 03:29:00,
2013-03-13 22:34:00,30.3,21.0,30.31,NNW,348,0.0,0.0,68,0.00,,---,0.00,VWS V14.01,2013-03-14 03:34:00,
2013-03-13 22:39:00,30.2,20.9,30.31,NNW,348,0.0,0.0,68,0.00,,---,0.00,VWS V14.01,2013-03-14 03:39:00,
2013-03-13 22:44:00,30.2,21.3,30.31,NNW,348,0.0,0.0,69,0.00,,---,0.00,VWS V14.01,2013-03-14 03:44:00,
2013-03-13 22:49:00,30.4,21.1,30.31,NNW,348,0.0,0.0,68,0.00,,---,0.00,VWS V14.01,2013-03-14 03:49:00,
2013-03-13 22:54:00,30.7,21.4,30.31,NNW,348,0.0,0.0,68,0.00,,---,0.00,VWS V14.01,2013-03-14 03:54:00,
2013-03-13 22:59:00,30.7,21.8,30.31,NNW,348,0.0,0.0,69,0.00,,---,0.00,VWS V14.01,2013-03-14 03:59:00,
2013-03-13 23:00:00,30.6,21.6,30.31,NNW,348,0.0,0.0,69,0.00,,---,0.00,VWS V14.01,2013-03-14 04:00:00,
2013-03-13 23:05:00,30.1,21.5,30.31,NNW,348,0.0,0.0,70,0.00,,---,0.00,VWS V14.01,2013-03-14 04:05:00,
2013-03-13 23:10:00,29.6,21.4,30.31,NNW,348,0.0,0.0,71,0.00,,---,0.00,VWS V14.01,2013-03-14 04:10:00,
2013-03-13 23:15:00,29.2,21.3,30.31,NNW,348,0.0,0.0,72,0.00,,---,0.00,VWS V14.01,2013-03-14 04:15:00,
2013-03-13 23:20:00,28.9,21.0,30.31,NNW,348,0.0,0.0,72,0.00,,---,0.00,VWS V14.01,2013-03-14 04:20:00,
2013-03-13 23:25:00,28.7,21.1,30.31,NNW,348,0.0,0.0,73,0.00,,---,0.00,VWS V14.01,2013-03-14 04:25:00,
2013-03-13 23:30:00,28.5,21.0,30.31,NNW,348,0.0,0.0,73,0.00,,---,0.00,VWS V14.01,2013-03-14 04:30:00,
2013-03-13 23:35:00,28.4,20.5,30.31,NNW,348,0.0,0.0,72,0.00,,---,0.00,VWS V14.01,2013-03-14 04:35:00,
2013-03-13 23:40:00,28.5,20.6,30.31,NNW,348,0.0,0.0,72,0.00,,---,0.00,VWS V14.01,2013-03-14 04:40:00,
2013-03-13 23:45:00,28.7,21.1,30.31,NNW,348,0.0,0.0,73,0.00,,---,0.00,VWS V14.01,2013-03-14 04:45:00,
2013-03-13 23:50:00,28.5,21.0,30.31,NNW,348,0.0,0.0,73,0.00,,---,0.00,VWS V14.01,2013-03-14 04:50:00,
2013-03-13 23:55:00,28.3,21.1,30.31,NNW,348,0.0,0.0,74,0.00,,---,0.00,VWS V14.01,2013-03-14 04:55:00,